CZ-3C R/B (43875 NORAD) Tracking and Keplerian Element Data

This shows tracking and keplerian element data for the satellite.

Feedback or suggestion? Click here.




ElementValue
Catalog43875
NameCZ-3C R/B
Epoch Orbit50
Epoch Day15.45232686
Epoch Year2019
RAAN335.6475
Inclination28.4582
Eccentricity0.7258731
Argument of Perigee192.9505
Mean Anonmoly126.5521
Mean Motion2.31720611
Decay Rate1.734E-05
L11 43875U 18110B 19015.45232686 .00001734 00000-0 33000-3 0 9994
L22 43875 28.4582 335.6475 7258731 192.9505 126.5521 2.31720611 505

Live tracking and technical data element details for CZ-3C R/B (NORAD 43875). CZ-3C R/B can be tracked NOW for your location showing map with azimuth and elevation plus other details from your city location.

Track the satellite on the map from your city or location and see movement details for azimuth, elevation, latitude, longitude, range, height, and movement on the map or in text.







IsCatalogInMostPopularTable: catalog: 43875, numindb: 15
Update: records affected: 1



GetName: 43875 CZ-3C R/B

Hit Count: updated at: Thu, 17 Jan 2019 14:39:59 GMT